Zurück zum Katalog

STARLINK-38172

AktivKommunikationSSO
NORAD 100214·PAYLOAD·🇺🇸 United States

Gestartet Aug 4, 2026 von Vandenberg Space Force Base

Loading…

Nächste Überflüge (nächste 24 Stunden)

TLE

AktuellSource: Space-Track

Epoche: Sep 14, 2026, 22:44 UTC

1 A0214U 26177B   26257.94741834 -.00471268  00000-0 -88921-2 0  9992
2 A0214  97.2838 308.7304 0001773  76.8459 283.2991 15.50128255  6507

Verfolge STARLINK-38172 in Echtzeit mit AllMySat

Download on the App Store